SCP
0 0 0 0 0 0 0 0 0 0 0 0 0 0 0 0 0 -0 0 0 -0 -0 0 -0 0 0 0 -0 0 -0 -0 -0 0 -0 0 0 -0 0 0 -0 -0 -0 0 0
0 0 0 0 0 0 0 0 0 0 0 0 0 0 0 -0 0 0 0 0 0 0 0 0 -0 -0 -0 0 0 0 -0 -0 0 0 0 0 -0 0 0 -0 0 -0 0 0
0 0 0 0 0 0 0 0 0 0 0 0 0 0 0 0 -0 0 0 0 0 0 -0 -0 0 0 0 0 0 -0 0 0 -0 -0 0 -0 0 0 0 0 0 -0 -0 0
0 0 0 0 0 0 0 0 -0 0 0 0 0 0 0 -0 0 -0 0 0 0 -0 0 -0 0 0 0 -0 0 0 0 0 -0 -0 -0 -0 0 0 -0 0 0 0 0 0
0 0 0 0 0 0 0 0 0 0 0 0 0 0 0 0 0 0 -0 0 0 -0 0 0 -0 0 0 -0 0 -0 0 0 0 0 0 -0 0 0 0 0 0 0 0 0
0 0 0 0 0 0 0 0 0 0 0 -0 0 0 0 0 0 0 0 0 -0 0 0 0 -0 -0 0 0 0 -0 0 0 0 0 0 0 0 0 0 0 0 0 0 0
-0 0 0 0 0 0 0 0 0 0 0 0 0 -0 -0 0 0 0 0 0 0 0 0 0 -0 -0 -0 0 0 0 0 0 0 0 0 0 0 -0 0 0 0 0 0 0
-0 0 0 0 0 0 0 0 0 0 0 0 0 0 -0 0 0 0 0 0 0 0 0 0 0 -0 -0 0 0 0 0 0 0 0 0 0 0 0 0 0 0 0 0 0
-0 -0 0 0 0 0 0 0 0 0 0 0 0 0 0 0 0 0 0 0 0 0 0 0 0 0 0 0 0 -0 0 0 0 0 0 -0 0 0 0 0 0 0 0 0
-0 -0 -0 0 0 0 0 0 0 0 0 0 0 0 0 0 0 0 0 0 0 0 0 0 0 0 0 0 0 0 0 0 0 0 0 0 0 0 0 0 0 0 0 0
-0 -0 -0 0 0 0 0 0 0 0 0 0 0 0 0 0 0 0 0 0 0 0 0 0 0 0 0 0 0 0 0 0 0 0 0 0 0 0 0 0 0 0 0 0
-0 -0 -0 0 0 0 0 0 0 0 0 0 0 0 0 0 0 0 0 0 0 0 0 0 0 0 0 0 0 0 0 0 0 0 0 0 0 0 0 0 0 0 0 0
-0 -0 -0 0 0 0 0 0 0 0 0 0 0 0 0 0 0 0 0 0 0 0 0 0 0 0 0 0 0 0 0 0 0 0 0 0 0 0 0 0 0 0 0 0
-0 -0 -0 0 0 0 0 0 0 0 0 0 0 0 0 0 0 0 0 0 0 0 0 0 0 0 0 0 0 0 0 0 0 0 0 0 0 0 0 0 0 0 0 0
-0 -0 -0 -0 0 0 0 0 0 0 0 0 0 0 0 0 0 0 0 0 0 0 0 0 0 0 0 0 0 0 0 0 0 0 0 0 0 0 0 0 0 0 0 0
-0 -0 -0 0 0 0 0 0 0 0 0 0 0 0 0 0 0 0 0 0 0 0 0 0 0 0 0 0 0 0 0 0 0 0 0 0 0 0 0 0 0 0 0 0
-0 0 0 0 0 0 0 0 0 0 0 0 0 0 0 0 0 0 0 0 0 0 0 0 0 0 0 0 0 0 0 0 0 0 0 0 0 0 0 0 0 0 0 0
-0 -0 0 0 0 0 0 0 0 0 0 0 0 0 0 0 0 0 0 0 0 0 0 0 0 0 0 0 0 0 0 0 0 0 0 0 0 0 0 0 0 0 0 0
-0 0 0 0 0 0 0 0 0 0 0 0 0 0 0 0 -0 0 0 0 0 0 0 0 0 0 0 0 0 0 0 0 0 0 0 0 0 0 0 0 0 0 0 0
-0 0 0 0 0 0 0 0 0 0 0 0 0 0 0 0 0 0 0 0 0 0 0 0 0 0 0 0 1 1 0 0 0 0 0 0 0 0 0 0 0 0 0 0
0 0 0 0 0 0 0 0 0 0 0 0 0 0 0 0 0 0 0 0 0 0 0 0 0 0 1 0 0 0 0 0 0 0 0 0 0 0 0 0 0 0 0 0
0 0 0 0 0 0 0 0 0 0 0 0 0 0 0 0 0 0 0 0 0 0 0 0 0 1 0 0 0 0 0 0 0 0 0 0 0 0 0 0 0 0 0 0
0 0 0 0 0 0 0 0 0 0 0 0 0 0 0 0 0 0 0 0 0 0 0 0 1 0 0 0 0 0 0 0 0 0 0 0 0 0 0 0 0 0 0 0
0 0 0 0 0 0 0 0 0 0 0 0 0 0 0 0 0 0 0 0 0 0 0 0 0 0 0 0 0 0 0 0 0 0 0 0 0 0 0 0 0 0 0 0
0 0 0 0 0 0 0 0 0 0 0 0 0 0 0 0 0 0 0 0 0 0 0 0 0 0 0 0 0 0 0 0 0 0 0 0 0 0 0 0 0 0 0 0
0 0 0 0 0 0 0 0 0 0 0 0 0 0 0 0 0 0 0 0 0 0 0 0 0 0 0 0 0 0 0 0 0 0 0 0 0 0 0 0 0 0 0 0
0 0 0 0 0 0 0 0 0 0 0 0 0 0 0 0 0 0 0 0 0 0 0 0 1 0 0 0 0 0 0 0 0 0 0 0 0 0 0 0 0 0 0 0
Wind_Speed_500mb
28 23 15 6 14 21 32 14 10 30 35 25 29 25 40 16 12 17 16 19 24 44 20 31 13 5 15 36 12 9 23 24 19 13 14 14 11 9 14 14 18 21 16 12
29 24 14 7 18 28 30 17 20 22 38 16 22 38 43 7 19 21 11 14 27 24 20 19 21 33 53 10 9 20 25 8 12 12 5 10 8 11 18 11 16 21 14 3
29 25 14 6 19 30 23 14 10 18 38 47 33 27 31 18 25 22 22 25 23 10 41 28 5 23 17 8 19 23 12 20 25 21 30 23 14 15 13 17 17 23 25 32
30 26 16 3 17 23 18 15 14 27 19 30 31 37 21 30 20 21 13 17 23 21 15 13 8 6 16 13 17 5 9 22 25 29 33 30 28 28 28 20 17 22 30 25
32 25 19 5 14 22 17 14 28 10 26 31 27 32 26 16 24 7 18 24 25 23 23 7 19 11 7 23 20 11 19 23 14 17 26 22 30 37 33 36 23 25 19 33
34 26 18 5 11 14 10 25 19 24 17 29 33 30 21 17 16 11 21 21 23 13 23 28 66 24 18 9 7 10 6 13 18 20 25 26 23 13 19 21 20 26 21 24
34 29 19 9 5 13 11 19 24 17 14 21 23 33 44 26 21 19 30 3 18 20 22 8 26 30 28 7 7 20 14 4 13 18 21 25 24 38 16 12 11 19 18 24
35 30 23 13 4 10 13 7 15 16 15 41 23 26 34 11 15 18 23 29 13 28 20 12 16 17 17 19 16 20 17 9 10 10 20 32 30 13 18 15 15 24 16 16
37 31 25 17 9 6 10 1 14 13 21 12 48 26 32 10 20 24 33 25 21 25 21 19 19 18 24 15 11 16 4 17 12 16 15 27 20 21 12 13 9 23 19 18
40 33 26 20 13 6 9 14 13 10 25 38 30 28 18 22 12 17 32 25 13 22 20 23 23 23 22 6 23 13 14 9 19 21 27 27 25 25 10 10 10 21 24 26
42 37 28 21 16 9 4 10 14 9 19 38 25 20 25 29 20 14 19 3 10 19 20 20 22 23 24 28 22 25 17 18 21 23 26 17 21 8 11 10 13 23 28 33
43 39 29 21 15 10 5 7 13 17 17 25 28 26 23 20 15 20 26 24 7 13 9 8 12 17 17 24 26 29 24 20 17 6 13 12 9 20 21 15 18 25 29 26
43 40 30 21 14 9 4 6 15 17 20 35 40 43 33 22 19 22 20 26 15 7 15 13 10 18 17 20 21 30 28 21 11 14 11 20 17 14 21 18 18 22 22 24
42 40 31 21 14 9 4 7 16 12 14 12 24 13 18 19 21 21 25 33 30 19 21 21 17 21 25 21 22 18 19 14 8 13 11 17 18 23 15 17 19 20 22 26
41 40 31 22 14 10 7 6 6 10 7 13 18 6 15 13 12 19 21 22 23 24 21 14 16 29 22 16 11 19 24 10 9 7 18 7 21 24 22 19 17 23 27 30
39 37 28 19 13 7 5 4 3 8 8 10 8 6 8 11 13 14 17 22 28 30 26 17 22 30 5 6 14 11 13 10 15 12 15 15 19 21 16 12 24 29 28 39
38 34 25 15 9 5 7 3 7 10 10 7 10 12 16 11 14 15 15 19 21 14 25 26 25 16 8 8 15 9 19 13 12 12 13 16 15 22 21 21 21 30 37 40
35 31 22 14 10 6 6 9 12 11 5 10 8 12 8 16 18 14 12 12 16 15 15 21 10 7 11 7 9 20 21 10 7 6 11 20 25 25 28 30 32 37 40 41
30 23 17 11 1 4 6 14 19 15 11 12 11 15 6 15 22 17 12 11 11 17 15 20 13 13 10 8 12 13 12 10 14 16 18 22 24 27 30 34 37 41 43 43
19 16 5 8 1 9 12 8 6 10 15 14 13 25 9 10 19 7 9 14 8 8 16 21 6 13 21 25 25 17 8 8 12 16 18 22 26 29 30 36 40 41 45 49
15 9 10 17 19 8 7 9 12 17 11 17 26 37 15 11 6 8 16 6 4 5 12 8 8 6 25 16 15 10 6 7 11 15 23 30 34 38 40 41 44 47 50 50
25 24 29 17 6 11 10 8 9 9 11 12 17 14 20 11 2 6 7 5 5 9 7 6 9 13 18 12 8 4 6 11 18 23 29 35 40 45 49 50 48 49 51 51
9 8 7 10 9 5 11 14 8 9 8 11 10 9 9 5 13 10 3 7 9 1 5 8 10 25 17 7 3 7 12 19 26 32 36 35 38 42 46 46 43 48 43 41
8 11 7 9 11 12 16 18 1 12 9 18 23 21 8 10 9 8 11 8 5 7 13 4 17 20 13 5 7 14 23 28 30 29 34 38 39 41 42 41 36 47 39 39
10 11 8 14 27 15 14 17 7 3 7 17 16 7 12 10 3 4 4 5 8 10 8 17 25 15 7 7 15 20 23 25 28 32 35 36 39 39 40 34 40 34 29 32
11 14 15 26 17 15 20 11 21 14 16 16 17 10 6 7 6 10 11 7 7 17 17 26 25 14 7 14 16 20 21 23 29 30 32 34 39 40 39 39 33 31 16 23
11 15 31 31 25 21 23 15 22 19 15 12 10 10 9 6 6 10 8 4 16 15 11 16 15 10 9 13 17 22 24 27 30 29 29 29 30 31 31 28 22 14 15 17
Wind_Direction_500mb
356 350 339 237 189 176 175 225 211 174 171 192 221 237 247 312 323 197 257 287 205 261 340 239 147 112 50 298 1 209 187 170 225 206 157 48 304 9 326 349 330 332 340 338
358 353 344 219 188 181 173 247 128 172 182 213 209 236 262 233 250 264 269 247 257 85 17 342 166 128 249 275 281 37 343 273 299 32 88 139 268 40 329 285 280 310 316 189
2 0 357 208 191 191 205 283 148 169 206 235 260 254 240 252 219 270 295 294 288 256 186 216 277 138 131 169 51 26 321 304 310 320 159 260 308 317 322 308 312 316 309 328
8 9 15 157 187 195 217 253 220 175 193 221 243 258 256 233 251 193 221 246 262 244 255 234 213 210 128 165 123 201 247 276 308 329 333 335 328 302 295 298 278 298 312 321
12 15 24 84 177 198 237 294 349 154 190 211 248 268 272 265 237 207 211 244 244 250 249 261 291 218 236 152 169 227 260 267 258 281 270 301 329 326 306 284 276 293 304 78
14 17 22 46 189 211 270 333 308 286 274 196 197 239 245 263 276 282 286 319 273 216 19 118 270 337 330 50 123 253 259 4 355 312 323 312 285 343 327 336 344 342 352 59
13 16 17 17 214 220 264 343 328 298 282 279 210 221 241 232 271 330 324 241 312 11 325 275 254 292 301 292 341 296 295 329 270 281 305 297 327 325 56 13 346 25 17 38
10 10 12 7 316 236 236 324 328 311 294 271 257 233 238 221 215 254 277 303 348 317 298 284 265 264 263 278 271 251 257 280 306 328 300 310 314 354 27 22 359 50 36 17
7 6 5 3 343 264 221 351 304 291 292 319 331 284 230 190 225 239 244 270 281 312 293 264 253 257 255 255 258 282 353 328 232 244 275 278 26 53 32 335 255 49 28 13
3 2 1 0 353 322 220 211 311 290 283 275 334 2 346 250 238 255 263 230 243 270 270 275 272 277 294 333 331 276 292 259 277 305 309 308 28 357 351 262 50 10 4 354
360 359 356 356 356 350 224 173 309 316 283 286 322 339 348 346 347 294 26 224 218 259 278 274 280 289 298 311 311 308 327 322 313 302 286 305 28 11 21 37 14 355 344 333
357 356 353 350 351 1 103 83 313 302 261 262 310 303 293 287 302 332 330 320 3 358 317 316 291 293 314 328 307 321 315 324 307 317 322 27 77 33 56 34 356 341 328 328
353 353 350 346 341 338 320 294 340 328 277 292 265 261 280 257 270 270 288 285 351 328 306 325 302 310 309 292 291 299 296 26 302 318 313 33 44 37 45 11 338 323 325 323
347 350 347 341 333 319 292 76 331 336 292 277 253 150 225 245 252 246 246 261 273 272 278 280 284 280 276 279 299 298 303 315 307 305 0 354 64 46 11 340 331 330 325 325
341 345 342 338 332 321 286 246 308 350 333 315 309 263 230 253 228 231 244 243 250 245 248 238 255 267 280 291 315 282 294 28 334 53 69 45 338 336 330 321 324 324 316 329
335 339 337 336 335 339 56 188 210 279 352 288 275 210 202 226 247 241 239 236 233 237 250 255 266 271 131 283 278 27 95 55 18 21 5 343 309 290 305 305 315 311 315 311
330 333 329 323 323 288 266 311 235 310 324 262 266 241 171 214 224 223 225 214 220 230 239 241 257 274 193 248 260 54 92 61 17 353 327 323 325 315 333 359 336 312 304 310
327 326 322 309 299 292 292 267 285 295 260 256 269 264 199 183 213 213 202 208 216 225 252 261 236 184 210 250 267 60 70 34 354 355 345 315 315 312 317 315 313 313 315 316
328 324 318 306 23 257 236 273 286 266 222 296 242 255 177 158 226 223 154 242 236 225 218 231 250 246 257 55 132 100 69 30 348 323 314 313 325 321 320 320 318 317 319 320
339 352 311 217 212 293 297 291 213 206 208 232 255 274 262 192 198 191 236 181 236 247 214 224 248 254 102 73 75 79 54 359 335 329 330 319 308 316 323 320 316 316 314 314
4 320 283 291 311 309 238 245 218 190 212 213 231 245 253 179 284 237 185 342 246 242 243 200 230 175 94 97 95 94 60 355 315 301 309 311 313 312 307 307 309 304 310 318
318 295 287 300 271 232 238 222 219 240 227 160 218 194 221 100 315 285 99 245 216 254 91 220 235 111 120 112 81 25 333 326 321 311 310 311 311 310 309 306 305 310 308 315
327 311 257 220 234 6 223 211 215 212 181 146 208 154 173 97 224 232 162 220 251 169 213 232 83 134 118 110 58 358 332 317 313 313 312 324 325 319 313 310 311 316 313 322
255 231 287 229 204 229 218 248 81 78 160 159 201 165 208 178 170 229 192 240 344 254 237 110 120 123 112 84 3 334 323 316 317 332 328 321 320 318 318 315 312 316 315 321
258 243 237 233 253 294 333 2 18 237 237 192 202 151 193 179 160 237 256 196 237 230 71 103 118 122 103 8 341 324 329 329 322 319 318 315 318 319 320 317 313 320 328 333
241 243 258 269 302 271 242 230 243 172 200 191 189 195 200 187 220 201 205 230 243 79 110 127 129 109 24 341 323 324 313 314 320 315 319 319 318 319 317 316 316 319 328 337
237 238 243 267 299 297 337 172 43 159 232 195 199 206 188 273 234 221 214 233 91 83 73 67 82 64 352 317 308 319 314 316 315 320 324 336 337 331 328 328 337 339 355 1
Wind_Speed_850mb
28 23 15 6 14 21 32 14 10 30 35 25 29 25 40 16 12 17 16 19 24 44 20 31 13 5 15 36 12 9 23 24 19 13 14 14 11 9 14 14 18 21 16 12
29 24 14 7 18 28 30 17 20 22 38 16 22 38 43 7 19 21 11 14 27 24 20 19 21 33 53 10 9 20 25 8 12 12 5 10 8 11 18 11 16 21 14 3
29 25 14 6 19 30 23 14 10 18 38 47 33 27 31 18 25 22 22 25 23 10 41 28 5 23 17 8 19 23 12 20 25 21 30 23 14 15 13 17 17 23 25 32
30 26 16 3 17 23 18 15 14 27 19 30 31 37 21 30 20 21 13 17 23 21 15 13 8 6 16 13 17 5 9 22 25 29 33 30 28 28 28 20 17 22 30 25
32 25 19 5 14 22 17 14 28 10 26 31 27 32 26 16 24 7 18 24 25 23 23 7 19 11 7 23 20 11 19 23 14 17 26 22 30 37 33 36 23 25 19 33
34 26 18 5 11 14 10 25 19 24 17 29 33 30 21 17 16 11 21 21 23 13 23 28 66 24 18 9 7 10 6 13 18 20 25 26 23 13 19 21 20 26 21 24
34 29 19 9 5 13 11 19 24 17 14 21 23 33 44 26 21 19 30 3 18 20 22 8 26 30 28 7 7 20 14 4 13 18 21 25 24 38 16 12 11 19 18 24
35 30 23 13 4 10 13 7 15 16 15 41 23 26 34 11 15 18 23 29 13 28 20 12 16 17 17 19 16 20 17 9 10 10 20 32 30 13 18 15 15 24 16 16
37 31 25 17 9 6 10 1 14 13 21 12 48 26 32 10 20 24 33 25 21 25 21 19 19 18 24 15 11 16 4 17 12 16 15 27 20 21 12 13 9 23 19 18
40 33 26 20 13 6 9 14 13 10 25 38 30 28 18 22 12 17 32 25 13 22 20 23 23 23 22 6 23 13 14 9 19 21 27 27 25 25 10 10 10 21 24 26
42 37 28 21 16 9 4 10 14 9 19 38 25 20 25 29 20 14 19 3 10 19 20 20 22 23 24 28 22 25 17 18 21 23 26 17 21 8 11 10 13 23 28 33
43 39 29 21 15 10 5 7 13 17 17 25 28 26 23 20 15 20 26 24 7 13 9 8 12 17 17 24 26 29 24 20 17 6 13 12 9 20 21 15 18 25 29 26
43 40 30 21 14 9 4 6 15 17 20 35 40 43 33 22 19 22 20 26 15 7 15 13 10 18 17 20 21 30 28 21 11 14 11 20 17 14 21 18 18 22 22 24
42 40 31 21 14 9 4 7 16 12 14 12 24 13 18 19 21 21 25 33 30 19 21 21 17 21 25 21 22 18 19 14 8 13 11 17 18 23 15 17 19 20 22 26
41 40 31 22 14 10 7 6 6 10 7 13 18 6 15 13 12 19 21 22 23 24 21 14 16 29 22 16 11 19 24 10 9 7 18 7 21 24 22 19 17 23 27 30
39 37 28 19 13 7 5 4 3 8 8 10 8 6 8 11 13 14 17 22 28 30 26 17 22 30 5 6 14 11 13 10 15 12 15 15 19 21 16 12 24 29 28 39
38 34 25 15 9 5 7 3 7 10 10 7 10 12 16 11 14 15 15 19 21 14 25 26 25 16 8 8 15 9 19 13 12 12 13 16 15 22 21 21 21 30 37 40
35 31 22 14 10 6 6 9 12 11 5 10 8 12 8 16 18 14 12 12 16 15 15 21 10 7 11 7 9 20 21 10 7 6 11 20 25 25 28 30 32 37 40 41
30 23 17 11 1 4 6 14 19 15 11 12 11 15 6 15 22 17 12 11 11 17 15 20 13 13 10 8 12 13 12 10 14 16 18 22 24 27 30 34 37 41 43 43
19 16 5 8 1 9 12 8 6 10 15 14 13 25 9 10 19 7 9 14 8 8 16 21 6 13 21 25 25 17 8 8 12 16 18 22 26 29 30 36 40 41 45 49
15 9 10 17 19 8 7 9 12 17 11 17 26 37 15 11 6 8 16 6 4 5 12 8 8 6 25 16 15 10 6 7 11 15 23 30 34 38 40 41 44 47 50 50
25 24 29 17 6 11 10 8 9 9 11 12 17 14 20 11 2 6 7 5 5 9 7 6 9 13 18 12 8 4 6 11 18 23 29 35 40 45 49 50 48 49 51 51
9 8 7 10 9 5 11 14 8 9 8 11 10 9 9 5 13 10 3 7 9 1 5 8 10 25 17 7 3 7 12 19 26 32 36 35 38 42 46 46 43 48 43 41
8 11 7 9 11 12 16 18 1 12 9 18 23 21 8 10 9 8 11 8 5 7 13 4 17 20 13 5 7 14 23 28 30 29 34 38 39 41 42 41 36 47 39 39
10 11 8 14 27 15 14 17 7 3 7 17 16 7 12 10 3 4 4 5 8 10 8 17 25 15 7 7 15 20 23 25 28 32 35 36 39 39 40 34 40 34 29 32
11 14 15 26 17 15 20 11 21 14 16 16 17 10 6 7 6 10 11 7 7 17 17 26 25 14 7 14 16 20 21 23 29 30 32 34 39 40 39 39 33 31 16 23
11 15 31 31 25 21 23 15 22 19 15 12 10 10 9 6 6 10 8 4 16 15 11 16 15 10 9 13 17 22 24 27 30 29 29 29 30 31 31 28 22 14 15 17
Wind_Direction_850mb
356 350 339 237 189 176 175 225 211 174 171 192 221 237 247 312 323 197 257 287 205 261 340 239 147 112 50 298 1 209 187 170 225 206 157 48 304 9 326 349 330 332 340 338
358 353 344 219 188 181 173 247 128 172 182 213 209 236 262 233 250 264 269 247 257 85 17 342 166 128 249 275 281 37 343 273 299 32 88 139 268 40 329 285 280 310 316 189
2 0 357 208 191 191 205 283 148 169 206 235 260 254 240 252 219 270 295 294 288 256 186 216 277 138 131 169 51 26 321 304 310 320 159 260 308 317 322 308 312 316 309 328
8 9 15 157 187 195 217 253 220 175 193 221 243 258 256 233 251 193 221 246 262 244 255 234 213 210 128 165 123 201 247 276 308 329 333 335 328 302 295 298 278 298 312 321
12 15 24 84 177 198 237 294 349 154 190 211 248 268 272 265 237 207 211 244 244 250 249 261 291 218 236 152 169 227 260 267 258 281 270 301 329 326 306 284 276 293 304 78
14 17 22 46 189 211 270 333 308 286 274 196 197 239 245 263 276 282 286 319 273 216 19 118 270 337 330 50 123 253 259 4 355 312 323 312 285 343 327 336 344 342 352 59
13 16 17 17 214 220 264 343 328 298 282 279 210 221 241 232 271 330 324 241 312 11 325 275 254 292 301 292 341 296 295 329 270 281 305 297 327 325 56 13 346 25 17 38
10 10 12 7 316 236 236 324 328 311 294 271 257 233 238 221 215 254 277 303 348 317 298 284 265 264 263 278 271 251 257 280 306 328 300 310 314 354 27 22 359 50 36 17
7 6 5 3 343 264 221 351 304 291 292 319 331 284 230 190 225 239 244 270 281 312 293 264 253 257 255 255 258 282 353 328 232 244 275 278 26 53 32 335 255 49 28 13
3 2 1 0 353 322 220 211 311 290 283 275 334 2 346 250 238 255 263 230 243 270 270 275 272 277 294 333 331 276 292 259 277 305 309 308 28 357 351 262 50 10 4 354
360 359 356 356 356 350 224 173 309 316 283 286 322 339 348 346 347 294 26 224 218 259 278 274 280 289 298 311 311 308 327 322 313 302 286 305 28 11 21 37 14 355 344 333
357 356 353 350 351 1 103 83 313 302 261 262 310 303 293 287 302 332 330 320 3 358 317 316 291 293 314 328 307 321 315 324 307 317 322 27 77 33 56 34 356 341 328 328
353 353 350 346 341 338 320 294 340 328 277 292 265 261 280 257 270 270 288 285 351 328 306 325 302 310 309 292 291 299 296 26 302 318 313 33 44 37 45 11 338 323 325 323
347 350 347 341 333 319 292 76 331 336 292 277 253 150 225 245 252 246 246 261 273 272 278 280 284 280 276 279 299 298 303 315 307 305 0 354 64 46 11 340 331 330 325 325
341 345 342 338 332 321 286 246 308 350 333 315 309 263 230 253 228 231 244 243 250 245 248 238 255 267 280 291 315 282 294 28 334 53 69 45 338 336 330 321 324 324 316 329
335 339 337 336 335 339 56 188 210 279 352 288 275 210 202 226 247 241 239 236 233 237 250 255 266 271 131 283 278 27 95 55 18 21 5 343 309 290 305 305 315 311 315 311
330 333 329 323 323 288 266 311 235 310 324 262 266 241 171 214 224 223 225 214 220 230 239 241 257 274 193 248 260 54 92 61 17 353 327 323 325 315 333 359 336 312 304 310
327 326 322 309 299 292 292 267 285 295 260 256 269 264 199 183 213 213 202 208 216 225 252 261 236 184 210 250 267 60 70 34 354 355 345 315 315 312 317 315 313 313 315 316
328 324 318 306 23 257 236 273 286 266 222 296 242 255 177 158 226 223 154 242 236 225 218 231 250 246 257 55 132 100 69 30 348 323 314 313 325 321 320 320 318 317 319 320
339 352 311 217 212 293 297 291 213 206 208 232 255 274 262 192 198 191 236 181 236 247 214 224 248 254 102 73 75 79 54 359 335 329 330 319 308 316 323 320 316 316 314 314
4 320 283 291 311 309 238 245 218 190 212 213 231 245 253 179 284 237 185 342 246 242 243 200 230 175 94 97 95 94 60 355 315 301 309 311 313 312 307 307 309 304 310 318
318 295 287 300 271 232 238 222 219 240 227 160 218 194 221 100 315 285 99 245 216 254 91 220 235 111 120 112 81 25 333 326 321 311 310 311 311 310 309 306 305 310 308 315
327 311 257 220 234 6 223 211 215 212 181 146 208 154 173 97 224 232 162 220 251 169 213 232 83 134 118 110 58 358 332 317 313 313 312 324 325 319 313 310 311 316 313 322
255 231 287 229 204 229 218 248 81 78 160 159 201 165 208 178 170 229 192 240 344 254 237 110 120 123 112 84 3 334 323 316 317 332 328 321 320 318 318 315 312 316 315 321
258 243 237 233 253 294 333 2 18 237 237 192 202 151 193 179 160 237 256 196 237 230 71 103 118 122 103 8 341 324 329 329 322 319 318 315 318 319 320 317 313 320 328 333
241 243 258 269 302 271 242 230 243 172 200 191 189 195 200 187 220 201 205 230 243 79 110 127 129 109 24 341 323 324 313 314 320 315 319 319 318 319 317 316 316 319 328 337
237 238 243 267 299 297 337 172 43 159 232 195 199 206 188 273 234 221 214 233 91 83 73 67 82 64 352 317 308 319 314 316 315 320 324 336 337 331 328 328 337 339 355 1